User: anonymous   Login
Location: Antichan
(42.9728°N, 0.6667°E)
Time: 05:06:41
(UTC+00:00)
Language:

Cosmos 1602 - Orbit

View from above orbital plane
View from above orbital plane
View from above satellite
View from above satellite

Ground track
Ground track

The orbit data is extracted from the following two-line orbital elements,

1 15331U 84105A   20304.19914448 +.00000896 +00000-0 +47491-4 0  9992
2 15331 082.5401 197.3005 0014785 001.0150 359.1108 15.14019787968061
Epoch (UTC): 30 October 2020 04:46:46
Eccentricity: 0.0014785
inclination: 82.5401°
perigee height: 514 km
apogee height: 534 km
right ascension of ascending node: 197.3005°
argument of perigee: 1.0150°
revolutions per day: 15.14019787
mean anomaly at epoch: 359.1108°
orbit number at epoch: 96806

The dashed part of the orbit path shows where the satellite is in the earth's shadow,  

DLR